Regional Weather Roundup
Issued by NWS

Home | Current Version | Previous Version | Text Only | Print | Product List | Glossary On
Versions: 1 2 3 4 5 6 7 8 9 10 11 12 13 14 15 16 17 18 19 20 21 22 23 24 25 26 27 28 29 30 31 32 33 34 35 36 37 38 39 40 41 42 43 44 45 46 47 48 49 50
000
ASUS43 KMKX 132259
RWRWI

WISCONSIN REGIONAL WEATHER ROUNDUP
NATIONAL WEATHER SERVICE MILWAUKEE/SULLIVAN WI
500 PM CST WED DEC 13 2017

NOTE: "FAIR" INDICATES FEW OR NO CLOUDS BELOW 12,000 FEET WITH NO
SIGNIFICANT WEATHER AND/OR OBSTRUCTIONS TO VISIBILITY.

WIZ001-002-006>008-014>016-023>028-140000-
NORTHWEST WISCONSIN

CITY           SKY/WX    TMP DP  RH WIND       PRES   REMARKS
SUPERIOR ARPT  LGT SNOW  25  23  95 N9        29.79R WCI  15
ASHLAND        FLURRIES  23  17  78 NE16      29.76R WCI  10
HAYWARD        CLOUDY    17  13  84 CALM      29.73R
SIREN          CLEAR     21  14  73 N6        29.76R WCI  14
CUMBERLAND     MOCLDY    19  12  73 N7        29.71R WCI  10
RICE LAKE      FLURRIES  18  13  80 CALM      29.74R
CHETEK         PTCLDY    18  12  77 N8        29.70R WCI   8
LADYSMITH      CLOUDY    19  15  85 N8        29.70R WCI   8
EAU CLAIRE     MOCLDY    18  12  79 N6        29.70R WCI   9
MENOMONIE      CLOUDY    23  14  70 N12       29.72R WCI  11
NEW RICHMOND   CLOUDY    23  15  71 N15G22    29.74R WCI  10
OSCEOLA        CLOUDY    25  19  78 NW8       29.77R WCI  16
$$

WIZ003>005-009-010-017-018-140000-
NORTH CENTRAL WISCONSIN

CITY           SKY/WX    TMP DP  RH WIND       PRES   REMARKS
MANITOWISH WTR CLOUDY    15  13  93 N7        29.64R WCI   5
ARBOR VITAE    CLOUDY    17  13  85 N6        29.62R FOG     WCI   9
WOODRUFF       CLOUDY    17  13  85 N6        29.62R FOG     WCI   9
RHINELANDER    LGT SNOW  17  14  88 N8        29.62R FOG     WCI   7
EAGLE RIVER    CLOUDY    16  11  82 N9        29.62R WCI   5
LAND O LAKES   CLOUDY    17  13  88 N6        29.65R WCI   8
PHILLIPS       CLOUDY    15  12  89 N7        29.65R WCI   5
TOMAHAWK       CLOUDY    17  13  86 N7        29.61R FOG     WCI   7
MEDFORD        LGT SNOW  17  13  82 N10       29.60R WCI   5
MERRILL        LGT SNOW  18  14  85 NE10      29.61R WCI   6
$$

WIZ029-030-035-036-043>047-140000-
CENTRAL WISCONSIN

CITY           SKY/WX    TMP DP  RH WIND       PRES   REMARKS
WAUSAU         LGT SNOW  19  14  81 N12G18    29.59R WCI   7
MOSINEE        LGT SNOW  19  18  93 N14       29.60R WCI   6
MARSHFIELD     CLOUDY    19  15  84 N12       29.59R WCI   7
STEVENS POINT  MIX PCPN  20  18  94 N14G21    29.56R WCI   6
WAUPACA        LGT SNOW  25  21  84 N14G20    29.56R WCI  13
WAUTOMA        LGT SNOW  24  21  88 N14G20    29.54R FOG     WCI  12
WISC RAPIDS    LGT SNOW  21  17  84 N12       29.59R FOG     WCI   9
CAMP DOUGLAS   NOT AVBL
$$

WIZ011>013-019>022-031-037>040-048>050-140000-
NORTHEAST WISCONSIN

CITY           SKY/WX    TMP DP  RH WIND       PRES   REMARKS
ANTIGO         LGT SNOW  16  13  88 N18       29.57R WCI   0
SHAWANO        LGT SNOW  22  18  85 N17G24    29.58R WCI   7
OCONTO         CLOUDY    24  21  87 NE14      29.57R WCI  12
STURGEON BAY   LGT SNOW  23  21  92 NE15      29.57R FOG     WCI  10
GREEN BAY      LGT SNOW  25  21  85 NE23G32   29.55R VSB 1   WCI  10
MANITOWOC      LGT SNOW  24  22  91 NE7       29.51R FOG     WCI  16
APPLETON       LGT SNOW  25  21  86 NE18G25   29.50R WCI  11
CLINTONVILLE   LGT SNOW  21  18  86 N17G25    29.56R WCI   7
OSHKOSH        LGT SNOW  26  23  88 N23       29.50R FOG     WCI  11
$$

WIZ032>034-041-042-053>061-140000-
SOUTHWEST WISCONSIN

CITY           SKY/WX    TMP DP  RH WIND       PRES   REMARKS
LA CROSSE      CLOUDY    25  16  68 N16       29.67R WCI  12
SPARTA         CLOUDY    22  15  74 N12       29.63R WCI  10
VIROQUA        CLOUDY    23  17  80 N23       29.59R WCI   7
BOSCOBEL       CLOUDY    27  18  69 NW12G22   29.62R WCI  17
PRAIRIE DU CHI CLOUDY    28  18  67 NW17G24   29.61R WCI  15
PLATTEVILLE    CLOUDY    27  22  79 NW17G28   29.54R WCI  15
$$

WIZ056-057-062-063-064-067-068-140000-
SOUTH CENTRAL WISCONSIN

CITY           SKY/WX    TMP DP  RH WIND       PRES   REMARKS
REEDSBURG      CLOUDY    21  14  72 NW18G26   29.57R WCI   6
BARABOO/DELLS  CLOUDY    21  14  73 NW14G24   29.52R WCI   8
LONE ROCK      NOT AVBL
MINERAL POINT  CLOUDY    28  21  74 NW22G37   29.52R WCI  15
MADISON        CLOUDY    24  16  71 NW18G29   29.50R WCI  10
MIDDLETON      CLOUDY    26  18  71 NW20G29   29.50R WCI  13
WATERTOWN      LGT SNOW  25  22  89 NW16G23   29.44R WCI  12
MONROE         CLOUDY    28  19  69 NW18G35   29.47R WCI  16
JANESVILLE     CLOUDY    28  19  69 NW25G37   29.45R WCI  14
$$

WIZ051-052-058>065-066-070>072-140000-
SOUTHEAST WISCONSIN

CITY           SKY/WX    TMP DP  RH WIND       PRES   REMARKS
MILWAUKEE      LGT SNOW  29  24  82 NW16G24   29.40R FOG     WCI  17
WAUKESHA       LGT SNOW  25  21  86 NW14G26   29.41R WCI  13
MILWAUKEE/TIMM LGT SNOW  27  21  80 NW17      29.40R WCI  14
RACINE         LGT SNOW  29  24  82 NW16G26   29.40R WCI  17
BURLINGTON       N/A    N/A N/A N/A MISG        N/A
KENOSHA        FLURRIES  30  21  69 NW18G33   29.39R WCI  18
FOND DU LAC    LGT SNOW  26  22  84 N15       29.49R FOG     WCI  14
SHEBOYGAN      LGT SNOW  26  25  96 NE15      29.46R VSB 1   WCI  14
WEST BEND      LGT SNOW  27  27 100 NW14      29.40R WCI  15
JUNEAU         LGT SNOW  23  20  89 NW13G20   29.44R WCI  11
$$

LSZ147-162-140000-
LAKE SUPERIOR

STATION/POSITION TIME  TEMP    WIND        PRES    WAVE
                       AIR SEA DIR/SP/G            HT/PER
                 (UTC) (F)     (DEG/KT/KT) (MB)    (FT/S)
DEVILS ISLAND    2100   25      40/ 31/ 35 1006.8R
SAXON HARBOR     2240   23                 1006.8R
$$

LMZ867-665-643>646-140000-
LAKE MICHIGAN

STATION/POSITION TIME  TEMP    WIND        PRES    WAVE
                       AIR SEA DIR/SP/G            HT/PER
                 (UTC) (F)     (DEG/KT/KT) (MB)    (FT/S)
NORTHPORT PIER   2240   22      10/ 18/ 24 1003.0R
KEWAUNEE LAKESHO 2230   26      50/ 12/ 22  998.6R
SHEBOYGAN LAKESH 2200   26      70/ 23/ 24  995.9R
PORT WASHINGTON  2240   30      70/ 15/ 19  996.6R
MILWAUKEE LAKESH 2230   28     310/ 12/ 17   N/A
KENOSHA   LAKESH 2200   32     310/ 19/ 29  993.2
$$

TC  - TEMPERATURE IN CELSIUS
VSB - VISIBILITY IN STATUTE MILES
WCI - WIND CHILL INDEX
HX  - HEAT INDEX





USA.gov is the U.S. government's official web portal to all federal, state and local government web resources and services.